Theta_e
315 315 315 314 314 313 313 313 313 313 313 313 313 313 313 313 313 314 314 314 315 315 315 315 316 318 312 296 298 305 339 338 321 308 304 300 296 295 296 295 296 295 298 300 302 300 306
314 314 314 313 313 313 313 313 313 313 312 312 312 312 312 312 313 314 314 314 314 314 314 315 317 319 303 292 301 315 322 314 308 303 303 300 298 299 298 296 295 298 298 300 300 299 298
314 314 313 313 313 312 313 313 313 313 312 312 312 312 311 312 312 314 314 314 313 314 315 316 317 316 304 298 308 308 306 304 309 306 302 301 303 301 300 297 300 298 296 299 298 297 307
313 313 313 313 313 313 313 312 312 312 312 312 313 312 312 312 313 314 314 313 313 316 316 317 320 312 295 303 307 309 305 305 307 307 304 303 303 299 298 299 299 295 293 293 296 299 307
312 312 312 313 313 313 312 311 312 312 312 311 312 312 312 312 313 313 312 312 315 319 319 321 310 303 296 311 306 309 307 304 307 305 304 310 302 298 299 294 291 292 289 290 296 298 308
312 312 313 313 313 313 311 311 311 311 311 311 311 311 311 311 312 312 311 313 314 319 319 319 316 298 299 300 308 310 307 308 307 305 303 300 298 295 293 292 286 288 289 291 292 296 296
312 312 312 312 312 311 311 311 311 310 310 311 310 311 311 311 311 310 307 301 298 296 298 299 300 297 301 307 313 309 307 307 307 303 295 298 294 291 294 295 295 294 292 292 296 299 296
312 312 312 312 312 311 311 311 311 310 310 310 309 310 310 310 310 311 302 299 299 298 293 300 300 301 305 308 303 307 309 302 301 297 297 295 291 297 298 298 297 296 293 293 297 299 297
311 310 311 311 311 311 311 311 310 310 310 310 310 310 310 309 309 301 298 301 302 298 291 296 300 299 300 304 301 303 307 302 299 296 295 294 297 300 299 296 296 293 292 293 294 297 297
310 309 309 310 310 310 310 310 309 309 309 309 309 310 309 308 300 296 297 301 298 298 288 294 300 301 302 303 301 308 310 303 298 296 296 295 299 299 296 296 296 290 297 297 296 293 289
309 309 309 309 309 308 308 308 308 308 308 309 309 309 308 307 295 293 298 298 299 300 280 299 301 305 301 300 301 304 309 302 297 298 298 296 296 295 295 297 299 295 300 297 296 292 289
309 309 309 308 308 308 308 308 308 308 308 309 309 308 308 299 293 296 297 298 298 285 280 295 299 297 296 300 302 302 303 304 301 297 297 297 301 300 299 300 301 301 298 294 292 290 285
309 309 309 308 307 308 308 308 308 307 308 308 308 307 304 301 292 296 298 296 285 281 293 295 295 296 294 296 298 300 297 295 294 289 288 293 294 299 302 296 298 295 291 285 285 284 285
309 309 309 309 307 308 308 308 308 308 308 308 307 305 299 301 297 297 295 290 279 288 290 299 297 296 294 295 295 297 294 292 293 292 288 288 287 294 299 297 295 293 292 286 281 282 286
310 310 309 309 308 308 308 308 308 308 307 306 304 293 293 295 298 296 291 282 284 287 296 295 294 291 291 295 294 294 294 293 294 295 290 287 289 298 299 299 299 293 290 293 288 286 285
311 310 309 309 308 309 308 308 308 308 307 305 292 291 293 298 299 294 288 286 287 295 298 298 289 293 288 291 291 290 291 298 297 297 295 293 288 297 299 298 297 295 298 289 287 283 281
311 310 309 309 309 309 308 307 307 307 306 303 291 287 293 300 298 292 284 285 291 297 299 295 292 291 291 291 291 289 292 298 300 297 295 292 291 292 295 293 292 292 291 291 290 288 284
311 310 309 309 309 310 308 306 307 307 304 295 287 283 298 300 291 288 286 290 297 297 300 298 296 293 292 292 291 291 292 296 300 298 293 294 290 287 291 294 297 295 293 292 287 287 288
311 311 310 309 309 309 308 306 307 306 302 290 285 286 298 298 286 287 291 295 297 297 296 296 295 296 296 292 288 293 294 300 302 298 294 293 288 285 289 292 295 292 293 293 291 289 288
311 311 310 309 308 308 308 305 306 306 303 292 287 282 289 293 292 289 289 291 292 298 297 297 295 296 294 292 292 291 293 300 302 302 312 302 289 288 286 290 293 292 295 294 292 286 288
312 311 310 308 306 307 306 305 306 305 304 291 287 284 288 285 288 289 290 292 291 291 295 295 294 294 292 288 289 291 296 297 300 303 298 294 288 291 293 295 296 296 296 295 292 293 291
311 310 308 306 307 307 305 305 306 305 301 289 286 286 288 286 288 288 290 289 291 292 290 289 292 295 293 288 291 290 294 292 292 296 293 293 289 289 290 294 294 295 297 298 296 295 294
310 309 306 307 307 305 305 305 305 305 299 289 289 289 288 287 286 286 286 289 291 291 293 296 296 293 292 294 297 296 297 296 294 291 291 291 289 287 284 292 293 289 295 297 296 296 297
310 307 306 307 305 305 305 305 305 305 299 291 289 288 285 282 286 287 290 291 290 290 289 293 296 293 297 300 298 296 294 294 295 295 296 291 288 288 284 289 282 291 301 301 299 299 299
308 307 306 306 305 305 305 304 304 305 304 293 290 289 285 281 285 288 289 288 288 290 290 293 293 299 298 296 290 286 285 287 292 294 295 296 290 286 285 284 289 294 295 299 297 298 301
306 306 306 305 305 305 305 305 305 305 305 295 292 292 288 283 282 289 286 287 284 285 287 291 296 296 298 294 291 283 279 286 285 292 297 296 294 290 285 283 282 293 300 308 303 296 304
305 305 306 305 305 305 305 304 305 305 305 297 292 292 290 284 288 289 284 284 289 288 286 288 292 292 296 290 290 285 285 292 283 286 287 287 287 287 287 284 288 296 301 305 293 296 308
304 305 306 305 305 305 305 304 304 305 305 299 293 293 291 290 290 293 295 289 288 287 284 287 287 290 290 289 289 289 288 291 288 291 291 288 286 286 286 283 283 300 304 294 297 304 308
303 304 305 304 305 305 305 304 303 305 305 302 292 296 298 293 289 296 296 297 295 292 288 287 286 288 291 290 287 286 284 286 285 282 294 287 291 289 291 290 297 302 303 306 308 305 310
Wind_Speed
9 10 10 11 12 12 13 14 16 17 17 18 19 20 20 21 21 21 20 20 20 18 17 14 12 9 3 2 11 4 7 10 8 7 8 6 5 5 5 4 2 4 4 4 7 6 8
9 9 9 10 11 12 13 14 15 16 17 18 19 20 22 22 22 22 21 21 19 18 16 13 9 4 1 3 4 2 8 5 5 5 5 6 7 6 4 3 4 6 4 7 5 6 5
8 8 9 9 11 12 13 15 16 16 17 17 18 20 21 22 23 22 22 22 20 18 15 10 5 3 2 15 3 2 4 2 6 5 6 3 5 3 3 2 3 3 4 7 2 4 2
6 6 7 8 10 12 13 14 15 16 17 18 18 20 23 24 24 24 24 23 21 16 7 5 7 2 8 4 1 8 3 3 4 3 2 4 5 3 2 2 6 4 5 3 3 1 2
4 5 6 8 9 11 13 14 16 18 19 20 19 21 23 25 26 26 25 22 13 5 6 11 4 2 10 6 4 5 7 4 8 4 3 4 5 3 4 4 5 7 1 1 7 4 6
3 5 7 8 10 11 13 14 15 18 19 21 21 22 24 25 27 27 25 9 2 3 4 3 3 1 4 1 4 2 3 4 4 6 3 3 4 3 4 5 4 2 2 3 4 3 2
4 6 7 7 8 9 11 14 15 17 19 20 22 22 24 27 28 27 11 3 7 4 4 6 4 5 4 5 4 3 3 6 4 4 4 2 4 5 7 6 4 3 3 4 6 4 3
4 6 8 9 10 11 12 14 16 17 19 21 23 24 25 27 28 21 2 7 5 3 12 10 17 11 7 4 6 4 4 5 5 6 4 4 4 8 4 4 4 4 3 6 9 2 6
5 6 8 9 10 10 12 13 15 17 18 19 20 22 24 29 28 5 4 7 1 4 3 9 6 5 5 10 9 8 6 4 4 6 5 7 6 5 6 3 2 3 3 4 6 7 4
7 9 10 10 10 11 13 14 15 17 18 18 18 20 22 32 5 5 4 1 3 5 5 9 3 4 3 5 5 9 8 6 3 10 8 5 5 6 3 4 6 4 6 7 5 2 3
8 8 8 8 8 9 11 13 15 17 18 18 18 18 17 13 5 4 5 9 6 2 5 2 1 1 1 3 2 2 3 5 7 6 7 8 3 3 4 9 7 9 5 4 3 4 2
9 9 8 7 7 9 10 12 14 16 17 18 19 18 19 2 1 8 8 9 2 7 7 6 2 1 2 3 5 2 3 5 4 5 1 7 2 5 7 5 8 2 3 6 5 4 2
11 10 8 7 7 8 9 11 14 16 18 20 20 22 13 2 5 5 7 4 6 4 4 5 4 5 3 2 3 1 5 6 6 4 3 4 4 4 5 2 0 3 7 4 4 3 6
12 11 9 8 7 7 8 10 13 15 17 20 22 23 3 5 3 5 4 6 3 3 4 4 5 6 4 8 4 3 6 4 1 5 4 6 7 8 4 9 8 6 8 7 5 4 5
12 11 10 9 8 8 9 11 13 15 16 19 18 4 3 4 4 3 5 3 8 5 3 7 6 5 5 5 5 4 2 3 6 7 7 5 7 4 3 3 9 2 4 4 6 2 3
13 12 11 9 8 9 9 9 13 16 17 19 3 4 4 2 6 4 5 6 4 3 3 4 2 3 4 6 5 6 3 0 1 6 3 6 4 6 2 3 1 4 6 2 3 2 4
13 13 11 9 8 8 8 9 12 14 17 11 3 4 3 3 0 6 5 7 4 5 1 1 2 2 3 4 3 4 3 5 6 6 5 5 5 7 4 5 9 1 1 5 5 5 6
14 13 12 10 8 7 7 7 9 11 16 8 2 2 3 2 4 1 4 6 3 1 3 2 1 3 2 2 2 3 3 4 10 2 3 2 5 5 9 4 5 7 9 7 6 5 3
14 13 12 10 8 6 6 4 6 8 9 2 2 3 4 3 3 2 4 3 2 0 1 0 2 3 1 1 2 3 5 4 14 9 5 2 2 4 10 6 5 1 4 5 4 4 7
15 15 13 11 9 7 7 4 4 4 4 4 2 1 4 3 0 4 3 3 2 1 3 3 3 4 3 2 1 3 6 4 11 6 8 1 2 7 7 5 3 4 5 6 6 4 5
16 16 13 11 9 8 7 4 3 1 3 4 2 1 1 2 2 2 4 3 3 1 1 3 4 4 3 3 2 2 5 9 9 8 7 6 3 5 5 5 4 7 10 8 9 8 10
16 16 14 11 9 9 6 5 3 2 5 3 2 1 3 2 3 2 2 6 7 2 2 3 5 3 3 4 3 3 2 2 6 7 7 5 4 3 4 6 7 10 12 10 12 6 8
18 16 14 12 11 9 7 6 5 4 5 1 1 2 3 2 1 3 2 1 1 5 3 4 3 2 2 1 1 6 7 6 6 3 3 2 1 4 4 4 7 14 7 11 6 6 11
20 18 16 14 12 9 9 7 5 6 6 3 2 3 3 2 1 3 2 1 2 2 3 1 2 2 2 4 5 6 7 14 15 16 11 6 3 2 4 3 10 8 2 4 8 10 10
22 19 17 15 12 12 11 9 8 7 10 3 1 3 2 1 1 4 3 1 2 4 1 0 1 1 3 3 3 5 5 3 10 15 17 16 6 3 4 6 13 24 8 4 3 9 7
20 18 17 15 13 13 11 10 9 10 8 3 2 2 3 3 3 3 2 1 1 1 3 2 2 4 2 2 2 4 4 2 5 6 10 9 6 5 5 5 10 3 2 3 4 20 8
19 17 16 15 14 14 12 10 7 12 10 4 2 3 3 2 3 3 2 3 3 1 1 3 4 4 1 2 5 4 5 3 4 4 5 5 4 13 6 6 13 8 5 6 5 9 5
18 17 16 15 14 14 12 10 8 10 9 5 2 3 4 1 4 3 2 3 1 2 3 3 2 1 2 3 3 1 3 1 3 4 4 3 5 5 4 5 16 5 3 16 8 9 3
13 14 13 12 13 14 12 10 5 7 9 6 1 1 2 2 4 2 5 9 9 6 4 3 2 2 3 2 2 1 1 2 2 3 4 4 5 3 7 11 5 4 4 12 4 6 8
Wind_Direction
24 19 19 19 17 12 7 6 5 1 357 354 349 347 342 339 334 327 318 314 312 312 310 310 310 312 271 30 254 312 56 123 116 143 148 132 132 143 173 196 168 197 256 189 226 216 231
15 15 15 16 13 9 5 4 1 359 355 351 346 343 340 336 330 322 316 312 310 306 304 301 297 296 145 271 250 71 107 121 131 126 151 137 183 195 135 211 180 206 246 270 255 211 233
10 10 10 10 8 3 359 357 357 353 351 347 343 339 337 332 326 321 316 313 308 302 294 282 248 213 125 235 111 343 335 183 180 158 142 217 162 106 142 317 277 275 301 324 259 167 145
4 5 5 3 0 356 355 353 352 350 348 344 340 337 335 332 326 323 320 316 311 302 267 207 185 169 243 247 154 294 167 206 172 167 136 181 171 164 171 269 11 12 48 30 273 348 349
353 355 354 354 353 353 352 351 349 348 346 343 340 337 334 332 327 323 322 319 319 58 116 143 124 146 266 314 265 260 168 192 139 121 190 110 132 161 51 82 17 1 187 271 319 324 120
336 337 340 342 342 348 349 349 348 347 345 343 341 338 334 332 328 327 322 310 216 83 118 201 255 358 276 273 297 254 191 179 122 113 88 108 51 86 45 76 213 196 20 309 266 240 83
320 327 332 330 336 342 343 345 345 345 343 342 341 339 335 332 329 328 341 47 11 350 9 221 204 248 287 269 309 333 147 113 105 90 143 227 94 195 210 188 170 152 190 240 252 221 306
309 323 329 332 335 338 337 340 340 341 342 341 341 341 337 332 330 323 322 77 113 214 304 239 248 255 265 51 332 293 133 125 120 183 116 30 244 220 189 155 180 201 248 275 289 244 185
303 319 326 329 330 331 332 333 334 336 339 338 338 339 339 333 325 28 348 116 134 142 261 296 220 214 215 149 203 247 161 134 137 142 164 162 235 151 158 189 233 257 205 240 232 325 300
293 309 316 329 333 332 333 332 332 334 337 335 336 339 342 333 57 333 287 27 269 194 25 283 295 290 128 166 232 195 182 147 134 180 157 214 257 206 170 221 146 288 208 232 257 40 246
283 288 298 311 314 322 326 331 332 334 334 331 333 337 341 348 296 321 313 332 325 96 353 291 15 198 108 192 293 197 197 79 157 157 118 235 190 171 174 221 169 230 219 217 224 194 74
255 268 281 297 313 329 333 333 334 333 329 327 327 329 335 41 309 251 323 316 53 44 260 325 104 11 123 236 305 98 122 79 148 152 199 212 225 171 201 183 188 228 335 31 47 81 44
260 264 264 278 299 316 323 325 330 331 328 324 323 317 314 159 236 328 320 24 46 158 317 329 330 351 320 306 256 91 154 150 150 125 291 329 248 251 195 197 349 116 65 325 346 11 215
253 257 260 266 280 302 315 322 325 328 329 324 323 315 271 212 276 351 19 51 196 251 258 333 337 318 67 4 15 296 127 140 131 100 117 175 317 183 198 180 192 188 155 156 224 200 248
238 243 249 259 276 297 313 325 327 329 332 329 326 326 292 261 206 103 80 100 208 215 325 347 334 54 340 359 25 32 26 181 202 173 170 148 276 290 206 159 138 179 164 184 120 18 81
221 231 241 254 275 293 311 325 328 332 334 335 343 347 285 324 142 83 80 226 235 246 343 20 358 33 2 335 41 34 342 126 121 209 174 204 285 214 219 85 18 161 165 66 15 196 244
218 222 234 246 265 277 300 322 331 336 335 332 38 9 305 123 77 57 161 234 273 244 27 87 166 316 349 353 22 336 293 11 5 345 145 146 150 257 116 181 195 17 256 60 125 145 181
214 220 230 243 259 274 279 317 331 346 342 36 11 26 303 24 59 11 170 194 240 151 0 338 196 223 219 34 342 289 258 355 347 340 34 2 158 255 221 243 193 170 197 153 134 259 210
216 220 227 238 247 263 255 295 326 2 34 40 36 278 318 81 155 251 280 260 235 312 215 269 257 195 69 39 331 246 308 62 16 15 12 302 319 348 346 9 10 158 224 176 132 96 198
214 214 218 228 243 258 227 245 311 1 54 85 76 17 312 45 296 165 171 251 256 316 258 224 255 80 89 52 338 301 339 2 332 350 349 59 156 172 199 209 181 296 282 228 163 133 212
214 209 208 220 234 241 204 228 273 334 78 89 40 224 205 246 318 237 178 155 154 262 322 358 47 84 103 112 11 56 18 340 335 13 21 55 248 198 262 259 266 243 266 260 204 212 200
202 195 203 217 223 197 206 234 219 206 107 86 145 147 12 268 311 300 208 216 195 151 313 336 114 138 112 149 163 191 102 195 251 326 13 357 286 316 266 267 248 261 259 261 238 225 252
191 188 195 201 193 193 205 207 188 172 107 109 256 308 109 307 346 134 228 277 96 147 76 51 84 96 199 235 187 236 209 224 223 239 310 304 271 3 263 303 339 286 206 217 243 208 208
184 183 188 190 192 201 194 193 185 180 136 136 218 110 95 255 188 196 92 359 30 7 139 343 67 144 121 345 295 270 237 235 237 238 209 197 164 205 255 334 239 263 206 235 222 250 230
182 179 183 188 197 199 194 201 200 204 168 122 194 107 120 216 311 289 181 125 5 323 253 178 334 325 27 299 319 329 317 291 241 230 215 203 161 235 203 208 284 283 286 257 194 273 229
176 178 180 186 191 191 199 206 214 207 186 115 181 140 104 118 237 347 114 82 229 135 322 274 338 349 9 229 169 212 229 282 299 319 212 183 258 215 147 192 238 353 97 22 236 272 178
174 171 180 189 196 199 197 203 228 197 199 133 213 186 113 172 248 165 198 176 143 138 179 311 341 343 41 199 216 195 227 235 249 229 186 156 165 221 225 248 276 212 298 10 253 277 226
170 176 184 190 195 198 196 201 211 213 206 141 230 186 131 237 274 227 193 153 59 106 136 290 24 261 293 213 232 198 228 15 281 304 312 194 189 196 153 198 262 210 91 194 235 259 277
162 183 175 186 203 192 198 192 216 215 184 142 131 192 139 183 249 260 242 238 230 199 156 229 196 253 234 152 226 171 245 303 180 255 274 254 199 232 193 225 251 350 322 297 313 285 294